When you browse on this site, cookies collect data to enhance your experience and personalize the content and advertising you see.
Visit our Privacy Policy to learn more. By continuing to use the site, you agree to this use of cookies and data.
  • In Portugal
  • List of Countries
  • For 7 days
  • Water Temperature
  • Satellite Maps
  • Weather Map
  • Weather Widgets
  • user-avatar
    Login

    Hourly Weather Mongu

    Today, 22 March, Friday

    Time Temperature Precipitation Wind Pressure Humidity
    00:00 +25°C° 0 mm 1 mps 673 mmHg 52%
    01:00 +24°C° 0 mm 1 mps 672 mmHg 55%
    02:00 +24°C° 0 mm 1 mps 672 mmHg 58%
    03:00 +23°C° 0 mm 1 mps 672 mmHg 61%
    04:00 +23°C° 0 mm 1 mps 672 mmHg 63%
    05:00 +22°C° 0 mm 1 mps 672 mmHg 65%
    06:00 +23°C° 0 mm 1 mps 673 mmHg 63%
    07:00 +25°C° 0 mm 1 mps 673 mmHg 61%
    08:00 +26°C° 0 mm 1 mps 674 mmHg 59%
    09:00 +29°C° 0 mm 1 mps 675 mmHg 51%
    10:00 +32°C° 0 mm 1 mps 675 mmHg 42%
    11:00 +36°C° 0 mm 1 mps 676 mmHg 33%
    12:00 +37°C° 0 mm 2 mps 675 mmHg 29%
    13:00 +38°C° 0 mm 2 mps 675 mmHg 25%
    14:00 +39°C° 0 mm 3 mps 674 mmHg 21%
    15:00 +38°C° 0 mm 3 mps 674 mmHg 22%
    16:00 +38°C° 0 mm 2 mps 673 mmHg 23%
    17:00 +37°C° 0 mm 2 mps 673 mmHg 24%
    18:00 +34°C° 0 mm 1 mps 673 mmHg 27%
    19:00 +32°C° 0 mm 1 mps 673 mmHg 31%
    20:00 +28°C° 0 mm 0 mps 673 mmHg 34%
    21:00 +30°C° 0 mm 1 mps 673 mmHg 34%
    22:00 +29°C° 0 mm 1 mps 674 mmHg 35%
    23:00 +29°C° 0 mm 1 mps 674 mmHg 36%

    Tomorrow, 23 March, Saturday

    Time Temperature Precipitation Wind Pressure Humidity
    00:00 +28°C° 0 mm 1 mps 674 mmHg 41%
    01:00 +26°C° 0 mm 2 mps 673 mmHg 47%
    02:00 +25°C° 0 mm 2 mps 673 mmHg 52%
    03:00 +24°C° 0 mm 2 mps 673 mmHg 56%
    04:00 +24°C° 0 mm 2 mps 673 mmHg 59%
    05:00 +23°C° 0 mm 2 mps 672 mmHg 62%
    06:00 +24°C° 0 mm 2 mps 673 mmHg 61%
    07:00 +25°C° 0 mm 2 mps 674 mmHg 60%
    08:00 +25°C° 0 mm 3 mps 675 mmHg 58%
    09:00 +28°C° 0 mm 3 mps 675 mmHg 51%
    10:00 +32°C° 0 mm 4 mps 676 mmHg 44%
    11:00 +34°C° 0 mm 4 mps 676 mmHg 37%
    12:00 +36°C° 0 mm 4 mps 675 mmHg 32%
    13:00 +37°C° 0 mm 4 mps 675 mmHg 28%
    14:00 +38°C° 0 mm 4 mps 674 mmHg 23%
    15:00 +38°C° 0 mm 4 mps 674 mmHg 23%
    16:00 +37°C° 0 mm 4 mps 673 mmHg 23%
    17:00 +37°C° 0 mm 4 mps 673 mmHg 22%
    18:00 +35°C° 0 mm 3 mps 673 mmHg 27%
    19:00 +32°C° 0 mm 2 mps 673 mmHg 32%
    20:00 +29°C° 0 mm 2 mps 673 mmHg 36%
    21:00 +29°C° 0 mm 2 mps 673 mmHg 40%
    22:00 +28°C° 0 mm 2 mps 674 mmHg 44%
    23:00 +28°C° 0 mm 2 mps 674 mmHg 48%

    Day after tomorrow, 24 March, Sunday

    Time Temperature Precipitation Wind Pressure Humidity
    00:00 +26°C° 0 mm 2 mps 673 mmHg 55%
    01:00 +25°C° 0 mm 2 mps 673 mmHg 61%
    02:00 +24°C° 0 mm 2 mps 672 mmHg 68%
    03:00 +23°C° 0 mm 2 mps 672 mmHg 72%
    04:00 +22°C° 0 mm 1 mps 672 mmHg 76%
    05:00 +22°C° 0 mm 1 mps 672 mmHg 79%
    06:00 +23°C° 0 mm 2 mps 673 mmHg 76%
    07:00 +22°C° 0 mm 3 mps 674 mmHg 73%
    08:00 +24°C° 0 mm 3 mps 674 mmHg 70%
    09:00 +27°C° 0 mm 4 mps 675 mmHg 60%
    10:00 +29°C° 0 mm 4 mps 676 mmHg 50%
    11:00 +33°C° 0 mm 4 mps 676 mmHg 41%
    12:00 +34°C° 0 mm 4 mps 675 mmHg 37%
    13:00 +35°C° 0 mm 4 mps 675 mmHg 33%
    14:00 +36°C° 0 mm 4 mps 674 mmHg 29%
    15:00 +36°C° 0 mm 4 mps 673 mmHg 31%
    16:00 +35°C° 0 mm 3 mps 672 mmHg 32%
    17:00 +35°C° 0 mm 3 mps 672 mmHg 33%
    18:00 +33°C° 0 mm 3 mps 672 mmHg 39%
    19:00 +30°C° 0 mm 2 mps 672 mmHg 44%
    20:00 +28°C° 0 mm 2 mps 672 mmHg 49%
    21:00 +28°C° 0 mm 2 mps 673 mmHg 49%
    22:00 +28°C° 0 mm 2 mps 673 mmHg 50%
    23:00 +27°C° 0 mm 2 mps 674 mmHg 50%

    25 March, Monday

    Time Temperature Precipitation Wind Pressure Humidity
    00:00 +26°C° 0 mm 2 mps 673 mmHg 57%
    01:00 +25°C° 0 mm 2 mps 673 mmHg 64%
    02:00 +23°C° 0 mm 2 mps 672 mmHg 71%
    03:00 +23°C° 0 mm 2 mps 672 mmHg 74%
    04:00 +21°C° 0 mm 2 mps 672 mmHg 78%
    05:00 +21°C° 0 mm 2 mps 672 mmHg 82%
    06:00 +21°C° 0 mm 2 mps 673 mmHg 78%
    07:00 +23°C° 0 mm 2 mps 673 mmHg 74%
    08:00 +24°C° 0 mm 3 mps 674 mmHg 70%
    09:00 +27°C° 0 mm 3 mps 675 mmHg 59%
    10:00 +30°C° 0 mm 3 mps 675 mmHg 48%
    11:00 +34°C° 0 mm 3 mps 676 mmHg 37%
    12:00 +35°C° 0 mm 3 mps 675 mmHg 33%
    13:00 +36°C° 0 mm 3 mps 674 mmHg 28%
    14:00 +37°C° 0 mm 3 mps 673 mmHg 24%
    15:00 +37°C° 0 mm 3 mps 673 mmHg 25%
    16:00 +36°C° 0 mm 2 mps 672 mmHg 25%
    17:00 +36°C° 0 mm 2 mps 672 mmHg 26%
    18:00 +34°C° 0 mm 2 mps 672 mmHg 29%
    19:00 +31°C° 0 mm 2 mps 672 mmHg 32%
    20:00 +30°C° 0 mm 2 mps 672 mmHg 36%
    21:00 +29°C° 0 mm 2 mps 673 mmHg 40%
    22:00 +28°C° 0 mm 2 mps 673 mmHg 45%
    23:00 +27°C° 0 mm 2 mps 673 mmHg 49%

    26 March, Tuesday

    Time Temperature Precipitation Wind Pressure Humidity
    00:00 +25°C° 0 mm 2 mps 673 mmHg 55%
    01:00 +24°C° 0 mm 2 mps 672 mmHg 60%
    02:00 +23°C° 0 mm 1 mps 672 mmHg 65%
    03:00 +23°C° 0 mm 1 mps 672 mmHg 65%
    04:00 +23°C° 0 mm 1 mps 672 mmHg 65%
    05:00 +23°C° 0 mm 1 mps 672 mmHg 65%
    06:00 +24°C° 0 mm 2 mps 673 mmHg 64%
    07:00 +24°C° 0 mm 3 mps 673 mmHg 64%
    08:00 +25°C° 0 mm 3 mps 674 mmHg 63%
    09:00 +27°C° 0 mm 3 mps 675 mmHg 56%
    10:00 +29°C° 0 mm 3 mps 675 mmHg 49%
    11:00 +32°C° 0 mm 2 mps 676 mmHg 42%
    12:00 +34°C° 0 mm 2 mps 675 mmHg 39%
    13:00 +35°C° 0 mm 2 mps 674 mmHg 35%
    14:00 +36°C° 0 mm 2 mps 674 mmHg 31%
    15:00 +35°C° 0 mm 2 mps 673 mmHg 34%
    16:00 +34°C° 0 mm 2 mps 673 mmHg 37%
    17:00 +33°C° 0 mm 3 mps 673 mmHg 40%
    18:00 +30°C° 0 mm 2 mps 673 mmHg 44%
    19:00 +29°C° 0 mm 2 mps 673 mmHg 49%
    20:00 +27°C° 0 mm 2 mps 673 mmHg 54%
    21:00 +26°C° 0 mm 2 mps 673 mmHg 56%
    22:00 +25°C° 0 mm 2 mps 673 mmHg 58%
    23:00 +25°C° 0 mm 2 mps 674 mmHg 60%

    27 March, Wednesday

    Time Temperature Precipitation Wind Pressure Humidity
    00:00 +24°C° 0 mm 1 mps 673 mmHg 62%
    01:00 +24°C° 0 mm 1 mps 673 mmHg 64%
    02:00 +23°C° 0 mm 1 mps 673 mmHg 66%
    03:00 +23°C° 0 mm 1 mps 673 mmHg 68%
    04:00 +23°C° 0 mm 1 mps 673 mmHg 70%
    05:00 +22°C° 0 mm 1 mps 673 mmHg 71%
    06:00 +23°C° 0 mm 1 mps 674 mmHg 68%
    07:00 +25°C° 0 mm 1 mps 674 mmHg 65%
    08:00 +26°C° 0 mm 1 mps 675 mmHg 62%
    09:00 +28°C° 0 mm 2 mps 676 mmHg 53%
    10:00 +31°C° 0 mm 2 mps 676 mmHg 45%
    11:00 +35°C° 0 mm 2 mps 676 mmHg 36%
    12:00 +35°C° 0 mm 3 mps 676 mmHg 34%
    13:00 +36°C° 0 mm 3 mps 675 mmHg 32%
    14:00 +36°C° 0 mm 3 mps 674 mmHg 30%
    15:00 +36°C° 0 mm 3 mps 674 mmHg 30%
    16:00 +36°C° 0 mm 2 mps 674 mmHg 30%
    17:00 +35°C° 0 mm 2 mps 674 mmHg 30%
    18:00 +32°C° 0 mm 1 mps 674 mmHg 35%
    19:00 +29°C° 0 mm 1 mps 674 mmHg 40%
    20:00 +25°C° 0 mm 0 mps 674 mmHg 45%
    21:00 +27°C° 0 mm 1 mps 674 mmHg 46%
    22:00 +27°C° 0 mm 1 mps 674 mmHg 47%
    23:00 +26°C° 0 mm 2 mps 675 mmHg 48%
    Show more